Location: Capel Gartheli
(52.1833°N, 4.0667°W)
Time: 08:54:43
(UTC+00:00)

Cosmos 921 Rocket - Pass Details

Date: 18 February 2020
Orbit: 572 x 631 km, 75.8° (Epoch: 03 April)

Event Time Altitude Azimuth Distance (km) Brightness Sun altitude
Exits shadow 05:52:03 - 334° (NNW) 2,904 6.3 -15.1°
Reaches altitude 10° 05:54:19 10° 330° (NNW) 2,002 5.4 -14.8°
Maximum altitude 05:58:40 53° 254° (WSW) 756 3.1 -14.1°
Drops below altitude 10° 06:02:55 10° 178° (S) 1,953 5.7 -13.5°
Sets 06:05:08 0° 173° (S) 2,841 6.6 -13.1°
